Change the Weather History Date:

Sunday, February 1, 2009

  Actual Average Record
Temperature  
Mean Temperature 32 °F -  
Max Temperature 46 °F 37 °F 53 °F (2002)
Min Temperature 19 °F 21 °F 2 °F (1961)
Degree Days  
Heating Degree Days 32    
Moisture  
Dew Point 23 °F    
Average Humidity 68    
Maximum Humidity 89    
Minimum Humidity 44    
Precipitation  
Precipitation 0.00 in - - ()
Sea Level Pressure  
Sea Level Pressure 29.95 in    
Wind  
Wind Speed 7 mph (WSW)    
Max Wind Speed 29 mph    
Max Gust Speed 39 mph    
Visibility 9 miles    
Events      
Averages and records for this station are not official NWS values.
T = Trace of Precipitation, MM = Missing Value Source: NWS Daily Summary

Daily Weather History Graph

Daily Weather History Graph

Search for Another Location

Airport or City:

Trip Planner

Search our weather history database for the weather conditions in past years. The results will help you decide how hot, cold, wet, or windy it might be!

Date:

Astronomy

Feb. 01, 2009 Rise Set
Actual Time 6:53 AM EST 4:57 PM EST
Civil Twilight 6:23 AM EST 5:26 PM EST
Nautical Twilight 5:50 AM EST 5:59 PM EST
Astronomical Twilight 5:17 AM EST 6:32 PM EST
Moon 9:27 AM EST (2/1) 11:56 PM EST (2/1)
Length of Visible Light 11h 02m
Length of Day
10h 04m
Waxing Crescent, 36% of the Moon is Illuminated
Feb 1
Waxing Crescent
Feb 2
First Quarter
Feb 9
Full
Feb 16
Last Quarter
Feb 24
New

Hourly Weather History & Observations

Time (EST) Temp. Windchill Dew Point Humidity Pressure Visibility Wind Dir Wind Speed Gust Speed Precip Events Conditions
12:56 AM 21.9 °F 14.5 °F 3.0 °F 44% 30.02 in 10.0 mi West 5.8 mph - N/A   Overcast
1:56 AM 21.0 °F 14.6 °F 5.0 °F 50% 30.02 in 10.0 mi WNW 4.6 mph - N/A   Mostly Cloudy
2:56 AM 19.0 °F - 7.0 °F 59% 30.01 in 10.0 mi Calm Calm - N/A   Overcast
3:56 AM 19.0 °F - 10.0 °F 68% 30.01 in 10.0 mi Calm Calm - N/A   Overcast
4:56 AM 24.1 °F 19.7 °F 10.9 °F 57% 29.98 in 10.0 mi South 3.5 mph - N/A   Overcast
5:56 AM 25.0 °F - 14.0 °F 63% 29.99 in 10.0 mi Calm Calm - N/A   Overcast
6:56 AM 28.9 °F 22.8 °F 19.0 °F 67% 29.98 in 10.0 mi SSW 5.8 mph - N/A   Overcast
7:56 AM 30.9 °F 26.2 °F 21.0 °F 67% 29.98 in 10.0 mi Variable 4.6 mph - N/A   Overcast
8:56 AM 35.1 °F 30.1 °F 25.0 °F 67% 29.96 in 10.0 mi SSE 5.8 mph - N/A   Overcast
10:56 AM 44.1 °F 37.4 °F 30.9 °F 60% 29.91 in 10.0 mi WSW 13.8 mph - N/A   Clear
11:56 AM 46.9 °F - 30.9 °F 54% 29.86 in 10.0 mi WSW 28.8 mph 39.1 mph N/A   Clear
12:56 PM 45.0 °F 36.6 °F 30.9 °F 58% 29.84 in 10.0 mi WSW 21.9 mph 28.8 mph N/A   Clear
1:56 PM 44.1 °F 35.4 °F 32.0 °F 63% 29.83 in 10.0 mi WSW 21.9 mph 32.2 mph N/A   Clear
2:56 PM 44.1 °F 35.2 °F 30.9 °F 60% 29.83 in 10.0 mi WSW 23.0 mph 31.1 mph N/A   Clear
4:56 PM 39.9 °F 32.5 °F 30.9 °F 70% 29.88 in 10.0 mi WSW 12.7 mph 20.7 mph N/A   Clear
5:56 PM 37.9 °F 30.9 °F 30.9 °F 76% 29.91 in 10.0 mi WSW 10.4 mph - N/A   Clear
6:56 PM 39.0 °F 33.4 °F 30.9 °F 73% 29.94 in 10.0 mi West 8.1 mph - N/A   Clear
7:56 PM 37.9 °F 33.5 °F 32.0 °F 79% 29.95 in 10.0 mi West 5.8 mph - N/A   Clear
8:56 PM 34.0 °F - 30.0 °F 85% 29.97 in 10.0 mi Calm Calm - N/A   Clear
9:56 PM 32.0 °F - 28.9 °F 88% 29.98 in 7.0 mi Calm Calm - N/A   Clear
10:56 PM 30.9 °F - 28.0 °F 89% 29.99 in 3.0 mi Calm Calm - N/A   Clear
11:56 PM 30.0 °F - 27.0 °F 88% 30.00 in 6.0 mi Calm Calm - N/A   Clear